| time (UTC) | temp C | wind direction | speed KPH | gust KPH | rain 1hr cm | rain 24hr cm | rain mn cm | humidity % | barometer mb |
| 20260504081840 | 17 | 141 | 4.8 | 8.0 | 0.00 | 0.00 | 0.00 | 72 | 1014.4 |
| 20260504044823 | 19 | 51 | 4.8 | 9.7 | 0.00 | 0.00 | 0.00 | 63 | 1016.6 |
| 20260504041822 | 20 | 179 | 1.6 | 1.6 | 0.00 | 0.00 | 0.00 | 62 | 1016.5 |
| 20260504034820 | 20 | 192 | 3.2 | 3.2 | 0.00 | 0.00 | 0.00 | 60 | 1016.7 |
| 20260504031821 | 21 | 165 | 1.6 | 3.2 | 0.00 | 0.00 | 0.00 | 57 | 1016.4 |
| 20260504024819 | 21 | 160 | 4.8 | 4.8 | 0.00 | 0.00 | 0.00 | 54 | 1016.3 |
| 20260504021816 | 22 | 162 | 4.8 | 4.8 | 0.00 | 0.00 | 0.00 | 52 | 1016.4 |
| 20260504014813 | 23 | 156 | 4.8 | 8.0 | 0.00 | 0.00 | 0.00 | 49 | 1016.1 |
| 20260504011808 | 23 | 205 | 3.2 | 4.8 | 0.00 | 0.00 | 0.00 | 48 | 1016.0 |
| 20260504004804 | 24 | 169 | 4.8 | 8.0 | 0.00 | 0.00 | 0.00 | 45 | 1015.9 |
| 20260504001803 | 25 | 207 | 6.4 | 8.0 | 0.00 | 0.00 | 0.00 | 43 | 1016.0 |
| 20260503234759 | 26 | 175 | 4.8 | 8.0 | 0.00 | 0.00 | 0.00 | 40 | 1016.2 |
| 20260503231753 | 26 | 171 | 3.2 | 3.2 | 0.00 | 0.00 | 0.00 | 40 | 1016.2 |
| 20260503224749 | 27 | 213 | 9.7 | 14.5 | 0.00 | 0.00 | 0.00 | 38 | 1016.3 |
| 20260503221745 | 27 | 179 | 9.7 | 12.9 | 0.00 | 0.00 | 0.00 | 36 | 1016.8 |
| 20260503214740 | 27 | 182 | 12.9 | 14.5 | 0.00 | 0.00 | 0.00 | 37 | 1016.7 |
| 20260503211735 | 28 | 263 | 3.2 | 4.8 | 0.00 | 0.00 | 0.00 | 38 | 1017.4 |
| 20260503204735 | 28 | 264 | 3.2 | 3.2 | 0.00 | 0.00 | 0.00 | 38 | 1018.0 |
| 20260503201732 | 29 | 180 | 1.6 | 3.2 | 0.00 | 0.00 | 0.00 | 34 | 1018.5 |
| 20260503194731 | 28 | 193 | 4.8 | 8.0 | 0.00 | 0.00 | 0.00 | 35 | 1018.8 |
| 20260503191731 | 28 | 240 | 4.8 | 4.8 | 0.00 | 0.00 | 0.00 | 36 | 1019.7 |
| 20260503184727 | 27 | 249 | 0.0 | 1.6 | 0.00 | 0.00 | 0.00 | 39 | 1019.8 |
| 20260503181721 | 28 | 152 | 9.7 | 11.3 | 0.00 | 0.00 | 0.00 | 40 | 1020.2 |
| 20260503174720 | 27 | 302 | 4.8 | 4.8 | 0.00 | 0.00 | 0.00 | 43 | 1021.0 |
| 20260503171717 | 26 | 249 | 3.2 | 3.2 | 0.00 | 0.00 | 0.00 | 45 | 1021.5 |